Carbondale, IL

6:54 PM CST on December 14, 2019 (GMT -0600)
Southern Illinois

Weather History for KMDH - October, 2019

Change the Weather History Date:

Tuesday, October 1, 2019

  Actual Average Record
Temperature  
Mean Temperature 80 °F -  
Max Temperature 93 °F 78 °F 93 °F (1919)
Min Temperature 66 °F 48 °F 32 °F (1939)
Cooling Degree Days 14    
Growing Degree Days 30 (Base 50)    
Moisture  
Dew Point 66 °F    
Average Humidity 67    
Maximum Humidity 96    
Minimum Humidity 39    
Precipitation  
Precipitation 0.00 in - - ()
Sea Level Pressure  
Sea Level Pressure 30.01 in    
Wind  
Wind Speed 6 mph (South)    
Max Wind Speed 16 mph    
Max Gust Speed 26 mph    
Visibility 10 miles    
Events      
Averages and records for this station are not official NWS values.
T = Trace of Precipitation, MM = Missing Value Source: NWS Daily Summary

Daily Weather History Graph

Daily Weather History Graph

Search for Another Location

Airport or City:

Astronomy

Oct. 01, 2019 Rise Set
Actual Time 6:52 AM CDT 6:40 PM CDT
Civil Twilight 6:26 AM CDT 7:06 PM CDT
Nautical Twilight 5:55 AM CDT 7:36 PM CDT
Astronomical Twilight 5:25 AM CDT 8:07 PM CDT
Moon 10:05 AM CDT (10/1) 8:57 PM CDT (10/1)
Length of Visible Light 12h 40m
Length of Day
11h 47m
Waxing Crescent, 12% of the Moon is Illuminated
Oct 1
Waxing Crescent
Oct 5
First Quarter
Oct 13
Full
Oct 21
Last Quarter
Oct 27
New

Hourly Weather History & Observations

Time (CDT) Temp. Heat Index Dew Point Humidity Pressure Visibility Wind Dir Wind Speed Gust Speed Precip Events Conditions
12:52 AM 71.1 °F - 66.0 °F 84% 30.01 in 10.0 mi South 3.5 mph - N/A   Clear
1:52 AM 70.0 °F - 64.9 °F 84% 30.01 in 10.0 mi Calm Calm - N/A   Clear
2:52 AM 68.0 °F - 66.0 °F 93% 30.02 in 9.0 mi Calm Calm - N/A   Clear
3:52 AM 66.9 °F - 64.0 °F 90% 30.01 in 9.0 mi Calm Calm - N/A   Clear
4:52 AM 68.0 °F - 64.9 °F 90% 30.03 in 10.0 mi Calm Calm - N/A   Clear
5:52 AM 66.0 °F - 63.0 °F 90% 30.05 in 7.0 mi SSE 3.5 mph - N/A   Clear
6:52 AM 66.0 °F - 64.9 °F 96% 30.06 in 7.0 mi SSE 3.5 mph - N/A   Clear
7:52 AM 69.1 °F - 66.0 °F 90% 30.07 in 8.0 mi SSE 3.5 mph - N/A   Clear
8:52 AM 79.0 °F - 69.1 °F 72% 30.07 in 10.0 mi SSW 5.8 mph - N/A   Clear
9:52 AM 86.0 °F 88.8 °F 66.9 °F 53% 30.07 in 10.0 mi SW 10.4 mph - N/A   Clear
10:52 AM 89.1 °F 92.1 °F 66.9 °F 48% 30.05 in 10.0 mi WSW 12.7 mph - N/A   Clear
11:52 AM 91.9 °F 95.4 °F 66.9 °F 44% 30.05 in 10.0 mi SW 11.5 mph - N/A   Clear
12:52 PM 91.9 °F 94.1 °F 64.9 °F 41% 30.03 in 10.0 mi SW 16.1 mph - N/A   Clear
1:52 PM 93.0 °F 95.9 °F 66.0 °F 41% 30.01 in 10.0 mi SSW 16.1 mph - N/A   Clear
2:52 PM 93.0 °F 97.4 °F 68.0 °F 44% 30.00 in 10.0 mi SSW 12.7 mph 26.5 mph N/A   Clear
3:52 PM 93.0 °F 95.9 °F 66.0 °F 41% 29.98 in 10.0 mi South 13.8 mph - N/A   Partly Cloudy
4:52 PM 91.9 °F 93.3 °F 64.0 °F 39% 29.96 in 10.0 mi SSW 12.7 mph 25.3 mph N/A   Clear
5:52 PM 88.0 °F 89.3 °F 64.0 °F 45% 29.96 in 10.0 mi South 11.5 mph - N/A   Clear
6:52 PM 82.0 °F 83.8 °F 64.9 °F 56% 29.96 in 10.0 mi South 6.9 mph - N/A   Clear
7:52 PM 77.0 °F - 66.0 °F 69% 29.96 in 10.0 mi South 8.1 mph - N/A   Clear
8:52 PM 78.1 °F - 66.0 °F 66% 29.96 in 10.0 mi South 9.2 mph - N/A   Clear
9:52 PM 73.9 °F - 66.0 °F 76% 29.96 in 10.0 mi South 4.6 mph - N/A   Clear
10:52 PM 72.0 °F - 64.9 °F 78% 29.96 in 10.0 mi South 4.6 mph - N/A   Clear
11:52 PM 72.0 °F - 66.9 °F 84% 29.96 in 10.0 mi South 6.9 mph - N/A   Clear